Home   Weather   Yellowknife   Past weeks

Flag for Canada Past Weather in Yellowknife, Northwest Territories, Canada — Yesterday and Last 2 Weeks

28 °F

Light snow. Mostly cloudy.

Feels Like: 21 °F
Forecast: 21 / 30 °F
Wind: 7 mph from East

Location: Yellowknife

Current Time: Oct 22, 2016 at 12:00:34 PM

Latest Report: Oct 22, 2016 at 11:00 AM

Visibility: 15 mi

Pressure: 29.98 "Hg

Humidity: 86%

Dew Point: 25 °F

Location of YellowknifeLocation

Past Weather in Yellowknife — Graph


Yellowknife Temperature Yesterday

Maximum temperature yesterday: 34 °F (at 12:00 AM)
Minimum temperature yesterday: 30 °F (at 9:00 PM)
Average temperature yesterday: 33 °F

High & Low Weather Summary for the Past Weeks

High37 °F (Oct 8, 3:00 PM)100% (Oct 7, 10:00 AM)30.42 "Hg (Oct 7, 10:00 AM)
Low18 °F (Oct 12, 8:00 AM)50% (Oct 14, 1:00 PM)29.69 "Hg (Oct 20, 10:00 PM)
Average29 °F77%30.03 "Hg
* Reported Oct 7 10:00 AM — Oct 22 10:00 AM, Yellowknife, Weather by CustomWeather, © 2016

Note: Actual official high and low records may vary slightly from our data, if they occured in-between our weather recording intervals... More about our weather records


Yellowknife Weather History for the Previous 24 Hours

Scroll right to see more
Time TempWeatherWind HumidityBarometerVisibility
10:00 AM
Sat, Oct 22
28 °FLight snow. Overcast.9 mph86%29.96 "Hg15 mi
9:00 AM28 °FLight snow. Overcast.9 mph86%29.94 "Hg15 mi
8:00 AM28 °FLight snow. Overcast.8 mph86%29.92 "Hg15 mi
7:00 AM28 °FLight snow. Overcast.8 mph86%29.92 "Hg15 mi
6:00 AM28 °FLight snow. Overcast.7 mph86%29.91 "Hg15 mi
5:00 AM28 °FLight snow. Overcast.9 mph86%29.89 "Hg15 mi
4:00 AM28 °FLight snow. Overcast.7 mph86%29.89 "Hg15 mi
3:00 AM28 °FLight snow. Mostly cloudy.7 mph86%29.88 "Hg15 mi
2:00 AM30 °FLight snow. Mostly cloudy.10 mph80%29.87 "Hg15 mi
1:00 AM30 °FLight snow. Overcast.12 mph80%29.86 "Hg15 mi
12:00 AM30 °FLight snow. Overcast.7 mph86%29.85 "Hg15 mi
11:00 PM
Fri, Oct 21
30 °FLight snow. Overcast.9 mph86%29.84 "Hg15 mi
10:00 PM30 °FLight snow. Overcast.9 mph86%29.83 "Hg15 mi
9:00 PM30 °FLight snow. Overcast.7 mph93%29.83 "Hg15 mi
8:00 PM32 °FLight snow. Overcast.7 mph80%29.83 "Hg15 mi
7:00 PM32 °FLight snow. Overcast.6 mph80%29.83 "Hg15 mi
6:00 PM32 °FLight snow. Overcast.6 mph80%29.82 "Hg15 mi
5:00 PM32 °FLight snow. Overcast.6 mph80%29.81 "Hg15 mi
4:00 PM34 °FLight snow. Overcast.7 mph75%29.80 "Hg15 mi
3:00 PM34 °FLight snow. Overcast.7 mph75%29.80 "Hg15 mi
2:00 PM34 °FLight snow. Overcast.7 mph75%29.79 "Hg15 mi
1:00 PM34 °FLight snow. Overcast.8 mph81%29.79 "Hg15 mi
12:00 PM32 °FLight snow. Overcast.7 mph80%29.78 "Hg15 mi
Weather by CustomWeather, © 2016

See weather overviewHow to use our weather pages